Mount Sterling, KY

6:37 AM EST on February 08, 2016 (GMT -0500)
Mount Sterling-Montgomery County

Weather History for KIOB - March, 2014

Change the Weather History Date:

Wednesday, March 19, 2014

  Actual Average Record
Temperature  
Mean Temperature 50 °F -  
Max Temperature 57 °F 58 °F 57 °F (2014)
Min Temperature 42 °F 34 °F 33 °F (2013)
Degree Days  
Heating Degree Days 14    
Moisture  
Dew Point 42 °F    
Average Humidity 74    
Maximum Humidity 93    
Minimum Humidity 58    
Precipitation  
Precipitation 0.00 in - - ()
Sea Level Pressure  
Sea Level Pressure 29.92 in    
Wind  
Wind Speed 12 mph (WSW)    
Max Wind Speed 24 mph    
Max Gust Speed 36 mph    
Visibility 10 miles    
Events      
Averages and records for this station are not official NWS values.
T = Trace of Precipitation, MM = Missing Value Source: NWS Daily Summary

Daily Weather History Graph

Daily Weather History Graph

Search for Another Location

Airport or City:

Trip Planner

Search our weather history database for the weather conditions in past years. The results will help you decide how hot, cold, wet, or windy it might be!

Date:

Astronomy

Mar. 19, 2014 Rise Set
Actual Time 7:40 AM EDT 7:46 PM EDT
Civil Twilight 7:14 AM EDT 8:13 PM EDT
Nautical Twilight 6:44 AM EDT 8:43 PM EDT
Astronomical Twilight 6:12 AM EDT 9:15 PM EDT
Moon 11:01 PM EDT (3/19) 9:09 AM EDT (3/19)
Length of Visible Light 12h 58m
Length of Day
12h 05m
Waning Gibbous, 91% of the Moon is Illuminated
Mar 19
Waning Gibbous
Mar 23
Last Quarter
Mar 30
New
Apr 7
First Quarter
Apr 15
Full

Hourly Weather History & Observations

Time (EDT) Temp. Windchill Dew Point Humidity Pressure Visibility Wind Dir Wind Speed Gust Speed Precip Events Conditions
12:15 AM 46.4 °F 42.9 °F 42.8 °F 87% 29.88 in 10.0 mi South 6.9 mph - N/A   Clear
12:35 AM 46.4 °F 43.5 °F 42.8 °F 87% 29.88 in 10.0 mi SSW 5.8 mph - N/A   Clear
12:55 AM 44.6 °F 40.7 °F 41.0 °F 87% 29.89 in 10.0 mi SSW 6.9 mph - N/A   Clear
1:15 AM 44.6 °F 40.7 °F 41.0 °F 87% 29.90 in 10.0 mi SW 6.9 mph - N/A   Clear
1:35 AM 46.4 °F 41.9 °F 42.8 °F 87% 29.90 in 10.0 mi SSW 9.2 mph - N/A   Clear
1:55 AM 44.6 °F 40.7 °F 42.8 °F 93% 29.91 in 10.0 mi WSW 6.9 mph - N/A   Clear
2:15 AM 44.6 °F 40.2 °F 42.8 °F 93% 29.92 in 10.0 mi WSW 8.1 mph - N/A   Clear
2:35 AM 44.6 °F 38.8 °F 42.8 °F 93% 29.93 in 10.0 mi WSW 11.5 mph 16.1 mph N/A   Clear
2:55 AM 46.4 °F 40.1 °F 42.8 °F 87% 29.93 in 10.0 mi WSW 15.0 mph 26.5 mph N/A   Clear
3:15 AM 48.2 °F - 42.8 °F 82% 29.93 in 10.0 mi WSW 17.3 mph 26.5 mph N/A   Mostly Cloudy
3:35 AM 48.2 °F - 42.8 °F 82% 29.93 in 10.0 mi WSW 13.8 mph 23.0 mph N/A   Overcast
3:55 AM 46.4 °F 39.5 °F 42.8 °F 87% 29.93 in 10.0 mi WSW 17.3 mph 21.9 mph N/A   Overcast
4:15 AM 46.4 °F 40.4 °F 42.8 °F 87% 29.92 in 10.0 mi WSW 13.8 mph 20.7 mph N/A   Mostly Cloudy
4:35 AM 46.4 °F 39.8 °F 42.8 °F 87% 29.92 in 10.0 mi WSW 16.1 mph 20.7 mph N/A   Scattered Clouds
4:55 AM 46.4 °F 41.1 °F 42.8 °F 87% 29.92 in 10.0 mi SW 11.5 mph 19.6 mph N/A   Scattered Clouds
5:15 AM 46.4 °F 41.9 °F 42.8 °F 87% 29.92 in 10.0 mi SW 9.2 mph - N/A   Scattered Clouds
5:35 AM 46.4 °F 41.9 °F 42.8 °F 87% 29.93 in 10.0 mi SW 9.2 mph 16.1 mph N/A   Clear
5:55 AM 46.4 °F 41.5 °F 41.0 °F 81% 29.92 in 10.0 mi SW 10.4 mph 20.7 mph N/A   Clear
6:15 AM 46.4 °F 40.7 °F 41.0 °F 81% 29.92 in 10.0 mi SW 12.7 mph 18.4 mph N/A   Clear
6:35 AM 44.6 °F 38.4 °F 41.0 °F 87% 29.92 in 10.0 mi SW 12.7 mph 17.3 mph N/A   Clear
6:55 AM 44.6 °F 38.4 °F 41.0 °F 87% 29.91 in 10.0 mi SW 12.7 mph 17.3 mph N/A   Clear
7:15 AM 44.6 °F 38.4 °F 41.0 °F 87% 29.91 in 10.0 mi SW 12.7 mph - N/A   Clear
7:35 AM 44.6 °F 38.1 °F 41.0 °F 87% 29.90 in 10.0 mi SW 13.8 mph 17.3 mph N/A   Clear
7:55 AM 44.6 °F 38.8 °F 41.0 °F 87% 29.91 in 10.0 mi SW 11.5 mph 19.6 mph N/A   Clear
8:15 AM 46.4 °F 40.4 °F 41.0 °F 81% 29.91 in 10.0 mi SW 13.8 mph 18.4 mph N/A   Clear
8:35 AM 46.4 °F 40.1 °F 41.0 °F 81% 29.90 in 10.0 mi SW 15.0 mph 19.6 mph N/A   Mostly Cloudy
8:55 AM 48.2 °F - 41.0 °F 76% 29.89 in 10.0 mi SW 17.3 mph 21.9 mph N/A   Mostly Cloudy
9:15 AM 50.0 °F - 42.8 °F 76% 29.89 in 10.0 mi SW 16.1 mph 26.5 mph N/A   Scattered Clouds
9:35 AM 51.8 °F - 42.8 °F 71% 29.88 in 10.0 mi SW 20.7 mph 32.2 mph N/A   Scattered Clouds
9:55 AM 51.8 °F - 42.8 °F 71% 29.89 in 10.0 mi SW 24.2 mph 35.7 mph N/A   Scattered Clouds
10:15 AM 53.6 °F - 42.8 °F 67% 29.89 in 10.0 mi WSW 16.1 mph 27.6 mph N/A   Overcast
10:35 AM 53.6 °F - 42.8 °F 67% 29.90 in 10.0 mi WSW 16.1 mph 26.5 mph N/A   Overcast
10:55 AM 51.8 °F - 42.8 °F 71% 29.90 in 10.0 mi SW 16.1 mph 27.6 mph N/A   Overcast
11:15 AM 53.6 °F - 42.8 °F 67% 29.89 in 10.0 mi WSW 21.9 mph 28.8 mph N/A   Overcast
11:35 AM 53.6 °F - 42.8 °F 67% 29.87 in 10.0 mi SW 16.1 mph 27.6 mph N/A   Mostly Cloudy
11:55 AM 55.4 °F - 42.8 °F 63% 29.87 in 10.0 mi SW 18.4 mph 31.1 mph N/A   Mostly Cloudy
12:15 PM 53.6 °F - 42.8 °F 67% 29.88 in 10.0 mi WSW 17.3 mph 27.6 mph N/A   Overcast
12:35 PM 53.6 °F - 42.8 °F 67% 29.88 in 10.0 mi WSW 17.3 mph 25.3 mph N/A   Overcast
12:55 PM 53.6 °F - 42.8 °F 67% 29.89 in 10.0 mi WSW 12.7 mph 24.2 mph N/A   Overcast
1:15 PM 53.6 °F - 42.8 °F 67% 29.89 in 10.0 mi WSW 20.7 mph 26.5 mph N/A   Overcast
1:35 PM 53.6 °F - 42.8 °F 67% 29.88 in 10.0 mi WSW 20.7 mph 28.8 mph N/A   Overcast
1:55 PM 53.6 °F - 44.6 °F 72% 29.88 in 10.0 mi WSW 15.0 mph 25.3 mph N/A   Overcast
2:15 PM 53.6 °F - 42.8 °F 67% 29.88 in 10.0 mi WSW 18.4 mph 28.8 mph N/A   Overcast
2:35 PM 53.6 °F - 44.6 °F 72% 29.88 in 10.0 mi WSW 21.9 mph 29.9 mph N/A   Overcast
2:55 PM 53.6 °F - 44.6 °F 72% 29.87 in 10.0 mi WSW 16.1 mph 26.5 mph N/A   Overcast
3:15 PM 53.6 °F - 44.6 °F 72% 29.87 in 10.0 mi WSW 12.7 mph 23.0 mph N/A   Overcast
3:35 PM 53.6 °F - 44.6 °F 72% 29.86 in 10.0 mi West 19.6 mph 25.3 mph N/A   Overcast
3:55 PM 53.6 °F - 44.6 °F 72% 29.86 in 10.0 mi West 18.4 mph 31.1 mph N/A   Overcast
4:15 PM 55.4 °F - 44.6 °F 67% 29.86 in 10.0 mi WSW 21.9 mph 29.9 mph N/A   Overcast
4:35 PM 55.4 °F - 44.6 °F 67% 29.86 in 10.0 mi WSW 18.4 mph 34.5 mph N/A   Mostly Cloudy
4:55 PM 55.4 °F - 44.6 °F 67% 29.86 in 10.0 mi West 20.7 mph 29.9 mph N/A   Mostly Cloudy
5:15 PM 57.2 °F - 44.6 °F 63% 29.86 in 10.0 mi West 15.0 mph 25.3 mph N/A   Overcast
5:35 PM 55.4 °F - 44.6 °F 67% 29.87 in 10.0 mi West 11.5 mph 24.2 mph N/A   Overcast
5:55 PM 55.4 °F - 44.6 °F 67% 29.87 in 10.0 mi West 15.0 mph 20.7 mph N/A   Overcast
6:15 PM 55.4 °F - 42.8 °F 63% 29.88 in 10.0 mi West 12.7 mph 19.6 mph N/A   Overcast
6:35 PM 55.4 °F - 42.8 °F 63% 29.89 in 10.0 mi West 15.0 mph 21.9 mph N/A   Overcast
6:55 PM 53.6 °F - 42.8 °F 67% 29.91 in 10.0 mi NW 10.4 mph 18.4 mph N/A   Overcast
7:15 PM 53.6 °F - 41.0 °F 62% 29.93 in 10.0 mi WNW 15.0 mph 25.3 mph N/A   Mostly Cloudy
7:35 PM 51.8 °F - 39.2 °F 62% 29.94 in 10.0 mi NW 17.3 mph 25.3 mph N/A   Mostly Cloudy
7:55 PM 50.0 °F - 37.4 °F 62% 29.96 in 10.0 mi NW 16.1 mph 25.3 mph N/A   Scattered Clouds
8:15 PM 50.0 °F - 37.4 °F 62% 29.96 in 10.0 mi WNW 12.7 mph 21.9 mph N/A   Scattered Clouds
8:35 PM 50.0 °F - 37.4 °F 62% 29.97 in 10.0 mi WNW 10.4 mph 24.2 mph N/A   Clear
8:55 PM 50.0 °F - 35.6 °F 58% 29.98 in 10.0 mi NW 12.7 mph 19.6 mph N/A   Mostly Cloudy
9:15 PM 48.2 °F - 37.4 °F 66% 29.99 in - WNW 9.2 mph 16.1 mph N/A   Overcast
9:35 PM 50.0 °F - 37.4 °F 62% 30.00 in - WNW 9.2 mph - N/A   Overcast
9:55 PM 48.2 °F - 37.4 °F 66% 30.00 in 10.0 mi NW 11.5 mph - N/A   Overcast
10:15 PM 48.2 °F - 37.4 °F 66% 30.01 in 10.0 mi NW 11.5 mph 17.3 mph N/A   Overcast
10:35 PM 46.4 °F 41.1 °F 37.4 °F 71% 30.02 in 10.0 mi WNW 11.5 mph 18.4 mph N/A   Overcast
10:55 PM 46.4 °F 40.4 °F 37.4 °F 71% 30.03 in 10.0 mi NW 13.8 mph 19.6 mph N/A   Overcast
11:15 PM 44.6 °F 40.7 °F 37.4 °F 76% 30.03 in 10.0 mi NW 6.9 mph 16.1 mph N/A   Overcast
11:35 PM 44.6 °F 40.2 °F 35.6 °F 71% 30.03 in 10.0 mi NW 8.1 mph 18.4 mph N/A   Scattered Clouds
11:55 PM 42.8 °F 38.6 °F 35.6 °F 76% 30.04 in 10.0 mi NW 6.9 mph - N/A   Clear